1513011600.32,2074,4.75,71914.5,-2.67,-3.47,-3.47,0,*62
1513011601.54,2075,4.75,71926.0,-2.65,-3.47,-3.39,0,*68
1513011602.8,2076,4.75,71920.8,-2.67,-3.51,-3.47,0,*67
1513011604.06,2077,4.75,71914.3,-2.67,-3.43,-3.47,0,*65
1513011605.32,2078,4.75,71918.0,-2.67,-3.43,-3.43,0,*6E
1513011606.53,2079,4.75,71916.3,-2.67,-3.31,-3.23,0,*6C
1513011607.75,2080,4.75,71918.5,-2.67,-3.31,-3.31,0,*69
1513011608.96,2081,4.75,71934.0,-2.67,-3.23,-3.35,0,*6F
1513011610.18,2082,4.75,71966.0,-2.67,-3.31,-3.31,0,*6B
1513011611.38,2083,4.75,71908.5,-2.65,-3.31,-3.27,0,*6F
1513011612.61,2084,4.75,71920.0,-2.67,-3.35,-3.47,0,*68
1513011613.85,2085,4.75,71904.5,-2.65,-3.43,-3.43,0,*6E
1513011615.11,2086,4.75,71898.0,-2.63,-3.47,-3.43,0,*6F
1513011616.35,2087,4.75,71910.8,-2.65,-3.47,-3.47,0,*6C
1513011617.59,2088,4.75,71940.0,-2.65,-3.47,-3.43,0,*67
1513011618.82,2089,4.75,71894.8,-2.65,-3.47,-3.43,0,*66
1513011620.08,2090,4.75,71862.3,-2.63,-3.47,-3.55,0,*6F
1513011621.32,2091,4.75,71864.3,-2.65,-3.47,-3.47,0,*6B
1513011622.56,2092,4.75,71884.3,-2.65,-3.55,-3.59,0,*64
1513011623.83,2093,4.75,71876.3,-2.67,-3.59,-3.59,0,*6B
1513011625.04,2094,4.75,71902.8,-2.65,-3.71,-3.79,0,*66
1513011626.27,2095,4.75,71790.5,-2.65,-3.67,-3.71,0,*68
1513011627.5,2096,4.75,71570.5,-2.67,-3.75,-3.83,0,*67
1513011628.69,2097,4.75,71372.0,-2.65,-3.79,-3.83,0,*68
1513011629.92,2098,4.75,71316.8,-2.67,-4.13,-4.21,0,*61
1513011631.13,2099,4.75,71500.8,-2.67,-4.13,-4.33,0,*63
1513011632.35,2100,4.75,71534.5,-2.67,-4.09,-4.41,0,*6C
1513011633.6,2101,4.75,71618.0,-2.67,-4.25,-4.73,0,*62
1513011634.81,2102,4.75,71692.0,-2.67,-4.13,-4.33,0,*60
1513011636.05,2103,4.75,71722.8,-2.67,-4.37,-4.73,0,*63
1513011637.27,2104,4.75,71774.8,-2.65,-4.29,-4.69,0,*62
1513011638.51,2105,4.75,71816.0,-2.67,-4.37,-4.73,0,*65
1513011639.75,2106,4.75,71814.0,-2.67,-4.61,-4.77,0,*61
1513011640.96,2107,4.75,71832.3,-2.65,-4.69,-4.57,0,*68
1513011642.15,2108,4.75,71844.0,-2.65,-4.57,-4.33,0,*68
1513011643.36,2109,4.75,71812.8,-2.67,-4.41,-4.09,0,*65
1513011644.6,2110,4.75,71810.8,-2.67,-3.87,-3.63,0,*6B
1513011645.87,2111,4.75,71810.5,-2.67,-3.59,-3.51,0,*68
1513011647.13,2112,4.75,71744.5,-2.67,-3.43,-3.43,0,*63
1513011648.39,2113,4.75,71766.0,-2.67,-3.59,-3.47,0,*6D
1513011649.66,2114,4.75,71732.0,-2.67,-3.51,-3.59,0,*6D
1513011650.89,2115,4.75,71764.0,-2.65,-3.47,-3.47,0,*66
1513011652.16,2116,4.75,71772.0,-2.67,-3.51,-3.47,0,*60
1513011653.42,2117,4.75,71782.5,-2.67,-3.51,-3.51,0,*66
1513011654.68,2118,4.75,71806.5,-2.67,-3.47,-3.51,0,*6E
1513011655.92,2119,4.75,71840.5,-2.65,-3.43,-3.43,0,*6A
1513011657.18,2120,4.75,71802.5,-2.67,-3.43,-3.47,0,*66
1513011658.37,2121,4.75,71760.5,-2.65,-3.35,-3.35,0,*61
1513011659.58,2122,4.75,71684.5,-2.67,-3.11,-3.19,0,*68
1513011660.85,2123,4.75,71876.3,-2.67,-3.47,-3.43,0,*65
1513011662.04,2124,4.75,71866.8,-2.65,-3.39,-3.39,0,*64
1513011663.23,2125,4.75,71856.3,-2.65,-3.39,-3.39,0,*65
1513011664.44,2126,4.75,71872.0,-2.65,-3.43,-3.31,0,*63
1513011665.68,2127,4.75,71878.0,-2.65,-3.47,-3.47,0,*67
1513011666.94,2128,4.75,71872.8,-2.63,-3.55,-3.47,0,*6D
1513011668.17,2129,4.75,71814.3,-2.65,-3.47,-3.47,0,*69
1513011669.44,2130,4.75,71830.8,-2.63,-3.67,-3.59,0,*6A
1513011670.67,2131,4.75,71868.3,-2.65,-3.55,-3.59,0,*6C
1513011671.91,2132,4.75,71822.0,-2.65,-3.43,-3.47,0,*67
1513011673.14,2133,4.75,71750.3,-2.65,-3.71,-3.67,0,*65
1513011674.36,2134,4.75,71860.8,-2.63,-3.79,-3.95,0,*61
1513011675.59,2135,4.75,71752.8,-2.63,-4.05,-4.21,0,*64
1513011676.81,2136,4.75,71818.5,-2.63,-4.17,-4.37,0,*63
1513011678.0,2137,4.75,71808.3,-2.65,-4.09,-4.37,0,*6B
1513011679.19,2138,4.75,71778.8,-2.65,-4.17,-4.49,0,*62
1513011680.43,2139,4.75,71926.3,-2.67,-4.41,-4.85,0,*62
1513011681.66,2140,4.75,71942.3,-2.67,-4.21,-4.25,0,*60
1513011682.88,2141,4.75,71960.0,-2.65,-3.95,-4.01,0,*6D
1513011684.1,2142,4.75,71916.0,-2.67,-3.83,-3.83,0,*66
1513011685.33,2143,4.75,71924.3,-2.67,-3.83,-3.75,0,*6E
1513011686.59,2144,4.75,71934.8,-2.67,-3.71,-3.71,0,*60
1513011687.82,2145,4.75,71936.3,-2.65,-3.55,-3.47,0,*60
1513011689.08,2146,4.75,71942.8,-2.67,-3.71,-3.63,0,*61
1513011690.34,2147,4.75,71926.8,-2.67,-3.63,-3.63,0,*63
1513011691.6,2148,4.75,71942.0,-2.63,-3.55,-3.55,0,*68
1513011692.86,2149,4.75,71910.5,-2.67,-3.71,-3.71,0,*6D
1513011694.07,2150,4.75,71846.0,-2.67,-4.13,-4.09,0,*6E
1513011695.26,2151,4.75,71834.0,-2.65,-4.05,-3.95,0,*68
1513011696.45,2152,4.75,71798.3,-2.65,-4.05,-4.05,0,*65
1513011697.64,2153,4.75,71748.3,-2.65,-4.05,-4.17,0,*67
1513011698.83,2154,4.75,71838.3,-2.65,-4.05,-3.95,0,*6D
1513011700.03,2155,4.75,71890.0,-2.65,-3.91,-3.91,0,*62
1513011701.26,2156,4.75,71916.8,-2.67,-4.25,-4.21,0,*67
1513011702.44,2157,4.75,71940.8,-2.65,-4.09,-3.95,0,*62
1513011703.67,2158,4.75,71920.3,-2.67,-3.83,-3.75,0,*64
1513011704.93,2159,4.75,71904.5,-2.67,-3.71,-3.71,0,*6C
1513011706.16,2160,4.75,71908.0,-2.65,-3.59,-3.67,0,*69
1513011707.43,2161,4.75,71936.3,-2.67,-3.63,-3.71,0,*64
1513011708.7,2162,4.75,71936.3,-2.67,-3.59,-3.59,0,*64
1513011709.93,2163,4.75,71910.3,-2.65,-3.43,-3.47,0,*63
1513011711.19,2164,4.75,71840.3,-2.67,-3.47,-3.43,0,*66
1513011712.45,2165,4.75,71790.8,-2.67,-3.47,-3.47,0,*63
1513011713.72,2166,4.75,71756.0,-2.67,-3.63,-3.63,0,*60
1513011714.93,2167,4.75,71728.0,-2.65,-3.67,-3.79,0,*6C
1513011716.16,2168,4.75,71782.3,-2.67,-3.83,-3.75,0,*67
1513011717.4,2169,4.75,71608.3,-2.67,-3.75,-3.71,0,*6B
1513011718.62,2170,4.75,71726.8,-2.67,-3.83,-3.83,0,*67
1513011719.89,2171,4.75,71844.3,-2.67,-3.63,-3.63,0,*66
1513011721.15,2172,4.75,71708.0,-2.67,-3.51,-3.51,0,*65
1513011722.41,2173,4.75,71844.3,-2.67,-3.63,-3.71,0,*67
1513011723.66,2174,4.75,71886.8,-2.67,-3.75,-3.63,0,*64
1513011724.89,2175,4.75,71870.5,-2.65,-3.47,-3.47,0,*60
1513011726.16,2176,4.75,71816.8,-2.67,-3.59,-3.51,0,*69
1513011727.42,2177,4.75,71806.5,-2.67,-3.51,-3.51,0,*60
1513011728.69,2178,4.75,71834.3,-2.67,-3.59,-3.59,0,*6F
1513011729.95,2179,4.75,71834.5,-2.67,-3.51,-3.47,0,*69
1513011731.22,2180,4.75,71874.8,-2.63,-3.47,-3.43,0,*68
1513011732.45,2181,4.75,71848.0,-2.65,-3.47,-3.47,0,*6B
1513011733.71,2182,4.75,71660.5,-2.67,-3.63,-3.63,0,*6A
1513011734.95,2183,4.75,71818.3,-2.65,-3.67,-3.55,0,*68
1513011736.21,2184,4.75,71900.0,-2.67,-3.59,-3.59,0,*6C
1513011737.45,2185,4.75,71920.8,-2.65,-3.59,-3.55,0,*63
1513011738.69,2186,4.75,71934.8,-2.67,-3.75,-3.63,0,*69
1513011739.91,2187,4.75,71848.3,-2.65,-3.39,-3.43,0,*60
1513011741.12,2188,4.75,71882.3,-2.65,-3.43,-3.39,0,*6F
1513011742.34,2189,4.75,71940.3,-2.63,-3.31,-3.31,0,*65
1513011743.53,2190,4.75,71900.0,-2.65,-3.27,-3.27,0,*6B
1513011744.72,2191,4.75,71934.3,-2.65,-3.39,-3.31,0,*62
1513011745.94,2192,4.75,71940.3,-2.63,-3.39,-3.39,0,*6F
1513011747.13,2193,4.75,71842.0,-2.61,-3.39,-3.35,0,*60
1513011748.4,2194,4.75,71894.8,-2.63,-3.47,-3.47,0,*69
1513011749.66,2195,4.75,71896.5,-2.63,-3.67,-3.71,0,*6F
1513011750.86,2196,4.75,71900.5,-2.65,-3.79,-3.79,0,*6D
1513011752.09,2197,4.75,71908.5,-2.65,-3.71,-3.71,0,*6C
1513011753.3,2198,4.75,71936.8,-2.65,-3.71,-3.79,0,*6B
1513011754.56,2199,4.75,71938.5,-2.67,-3.71,-3.63,0,*63
1513011755.82,2200,4.75,71902.5,-2.63,-3.59,-3.55,0,*6B
1513011757.09,2201,4.75,71882.3,-2.63,-3.71,-3.59,0,*6C
1513011758.33,2202,4.75,71892.5,-2.65,-3.67,-3.59,0,*6E
1513011759.57,2203,4.75,71818.3,-2.65,-3.47,-3.43,0,*66
1513011760.8,2204,4.75,71860.5,-2.65,-3.47,-3.43,0,*61
1513011762.07,2205,4.75,71830.5,-2.63,-3.43,-3.43,0,*62
1513011763.3,2206,4.75,71816.8,-2.65,-3.43,-3.43,0,*67
1513011764.56,2207,4.75,71884.0,-2.63,-3.43,-3.43,0,*60
1513011765.78,2208,4.75,71938.3,-2.65,-3.43,-3.39,0,*64
1513011766.99,2209,4.75,71870.0,-2.65,-3.43,-3.39,0,*65
1513011768.26,2210,4.75,71882.8,-2.63,-3.59,-3.55,0,*6A
1513011769.52,2211,4.75,71894.0,-2.63,-3.55,-3.43,0,*60
1513011770.78,2212,4.75,71856.5,-2.67,-3.51,-3.51,0,*60
1513011772.04,2213,4.75,71880.3,-2.63,-3.55,-3.47,0,*66
1513011773.3,2214,4.75,71840.5,-2.63,-3.47,-3.47,0,*62
1513011774.54,2215,4.75,71956.5,-2.61,-3.51,-3.51,0,*61
1513011775.81,2216,4.75,71924.3,-2.63,-3.59,-3.59,0,*60
1513011777.07,2217,4.75,71966.5,-2.63,-3.55,-3.55,0,*61
1513011778.33,2218,4.75,72062.8,-2.63,-3.59,-3.55,0,*62
1513011779.58,2219,4.75,71994.0,-2.63,-3.79,-3.71,0,*67
1513011780.77,2220,4.75,71888.5,-2.61,-4.29,-4.13,0,*6E
1513011781.99,2221,4.75,71910.0,-2.63,-4.49,-4.21,0,*6A
1513011783.19,2222,4.75,71932.8,-2.63,-4.49,-4.17,0,*6C
1513011784.43,2223,4.75,71954.3,-2.63,-4.05,-3.67,0,*65
1513011785.65,2224,4.75,71942.8,-2.65,-3.47,-3.39,0,*6E
1513011786.86,2225,4.75,71946.8,-2.63,-3.39,-3.31,0,*68
1513011788.1,2226,4.75,71924.0,-2.63,-3.43,-3.31,0,*66
1513011789.32,2227,4.75,71918.0,-2.63,-3.39,-3.39,0,*62
1513011790.56,2228,4.75,71906.8,-2.63,-3.39,-3.43,0,*60
1513011791.82,2229,4.75,71934.3,-2.63,-3.43,-3.43,0,*6C
1513011793.09,2230,4.75,71898.3,-2.63,-3.55,-3.43,0,*63
1513011794.35,2231,4.75,71840.5,-2.63,-3.67,-3.67,0,*65
1513011795.61,2232,4.75,71834.8,-2.63,-3.67,-3.71,0,*61
1513011796.86,2233,4.75,71828.5,-2.63,-3.55,-3.55,0,*67
1513011798.1,2234,4.75,71838.0,-2.61,-3.43,-3.43,0,*62
1513011799.36,2235,4.75,71826.8,-2.63,-3.47,-3.43,0,*65
1513011800.6,2236,4.75,71830.0,-2.61,-3.43,-3.51,0,*63
1513011801.86,2237,4.75,71840.8,-2.63,-3.59,-3.55,0,*6F
1513011803.1,2238,4.75,71866.3,-2.61,-3.51,-3.51,0,*6E
1513011804.34,2239,4.75,71872.8,-2.61,-3.43,-3.43,0,*6F
1513011805.57,2240,4.75,71860.0,-2.61,-3.51,-3.43,0,*62
1513011806.84,2241,4.75,71854.8,-2.63,-3.67,-3.67,0,*62
1513011808.07,2242,4.75,71854.0,-2.65,-3.71,-3.67,0,*60
1513011809.3,2243,4.75,71844.3,-2.65,-3.67,-3.67,0,*66
1513011810.57,2244,4.75,71868.0,-2.67,-3.51,-3.59,0,*6B
1513011811.83,2245,4.75,71870.0,-2.63,-3.55,-3.59,0,*6A
1513011813.1,2246,4.75,71876.8,-2.63,-3.67,-3.59,0,*68
1513011814.36,2247,4.75,71882.3,-2.63,-3.47,-3.47,0,*64
1513011815.6,2248,4.75,71888.8,-2.65,-3.47,-3.47,0,*6D
1513011816.83,2249,4.75,71908.5,-2.65,-3.55,-3.55,0,*6C
1513011818.06,2250,4.75,71926.5,-2.65,-3.55,-3.47,0,*67
1513011819.25,2251,4.75,71960.5,-2.65,-3.39,-3.39,0,*65
1513011820.47,2252,4.75,71934.3,-2.63,-3.39,-3.39,0,*60
1513011821.69,2253,4.75,71916.3,-2.63,-3.31,-3.31,0,*61
1513011822.94,2254,4.75,71888.3,-2.63,-3.55,-3.55,0,*66
1513011824.21,2255,4.75,71906.8,-2.63,-3.47,-3.47,0,*67
1513011825.44,2256,4.75,71902.3,-2.63,-3.39,-3.47,0,*6D
1513011826.64,2257,4.75,71928.5,-2.61,-3.39,-3.39,0,*67
1513011827.83,2258,4.75,71918.0,-2.61,-3.39,-3.39,0,*68
1513011829.02,2259,4.75,71916.3,-2.61,-3.39,-3.35,0,*65
1513011830.26,2260,4.75,71998.8,-2.63,-3.43,-3.39,0,*6C
1513011831.53,2261,4.75,71934.0,-2.63,-3.47,-3.43,0,*64
1513011832.74,2262,4.75,71822.5,-2.61,-3.79,-3.67,0,*6E
1513011833.97,2263,4.75,71874.5,-2.63,-4.21,-4.05,0,*64
1513011835.19,2264,4.75,71872.3,-2.63,-4.09,-3.79,0,*65
1513011836.4,2265,4.75,71958.5,-2.61,-3.91,-3.63,0,*6B
1513011837.62,2266,4.75,71954.0,-2.61,-3.75,-3.63,0,*62
1513011838.89,2267,4.75,71946.8,-2.63,-3.55,-3.59,0,*6A
1513011840.15,2268,4.75,71900.0,-2.63,-3.59,-3.59,0,*69
1513011841.41,2269,4.81,71916.5,-2.63,-3.55,-3.67,0,*69
1513011842.67,2270,4.75,71910.3,-2.63,-3.55,-3.55,0,*60
1513011843.93,2271,4.75,71922.0,-2.63,-3.55,-3.55,0,*61
1513011845.19,2272,4.75,71966.0,-2.63,-3.55,-3.55,0,*62
1513011846.45,2273,4.75,71962.0,-2.63,-3.47,-3.43,0,*67
1513011847.69,2274,4.75,71924.3,-2.61,-3.43,-3.43,0,*66
1513011848.96,2275,4.75,71962.0,-2.63,-3.67,-3.59,0,*68
1513011850.19,2276,4.75,71938.8,-2.65,-3.55,-3.55,0,*60
1513011851.42,2277,4.75,71884.8,-2.65,-3.67,-3.71,0,*66
1513011852.64,2278,4.75,71900.3,-2.63,-3.83,-3.83,0,*68
1513011853.86,2279,4.81,71870.8,-2.63,-3.95,-4.05,0,*67
1513011855.08,2280,4.75,71830.8,-2.63,-4.17,-4.09,0,*60
1513011856.27,2281,4.75,71872.5,-2.65,-4.09,-3.95,0,*6A
1513011857.49,2282,4.75,71906.5,-2.65,-3.83,-3.59,0,*6C
1513011858.73,2283,4.75,71912.3,-2.65,-3.67,-3.59,0,*67
1513011859.96,2284,4.75,71926.8,-2.65,-3.47,-3.47,0,*6D
1513011861.2,2285,4.75,71918.0,-2.65,-3.55,-3.59,0,*60
1513011862.44,2286,4.75,71940.3,-2.65,-3.59,-3.67,0,*62
1513011863.67,2287,4.81,71970.0,-2.65,-3.55,-3.55,0,*6E
1513011864.93,2288,4.81,71982.5,-2.67,-3.59,-3.51,0,*6B
1513011866.17,2289,4.75,71966.3,-2.65,-3.55,-3.47,0,*63
1513011867.43,2290,4.75,71998.3,-2.63,-3.59,-3.55,0,*62
1513011868.66,2291,4.81,71978.5,-2.65,-3.47,-3.47,0,*69
1513011869.89,2292,4.75,71952.8,-2.65,-3.71,-3.67,0,*6D
1513011871.09,2293,4.81,71940.0,-2.65,-3.79,-3.79,0,*6B
1513011872.32,2294,4.81,71944.3,-2.67,-3.75,-3.83,0,*67
1513011873.53,2295,4.75,71926.8,-2.67,-3.87,-3.83,0,*6B
1513011874.73,2296,4.75,71908.8,-2.65,-3.83,-3.79,0,*6B
1513011875.94,2297,4.81,71850.5,-2.65,-3.91,-3.91,0,*6F
1513011877.13,2298,4.75,71834.3,-2.65,-3.95,-4.05,0,*6E
1513011878.38,2299,4.75,71812.5,-2.67,-4.01,-4.09,0,*6B
1513011879.6,2300,4.75,71900.5,-2.67,-3.95,-3.95,0,*62
1513011880.82,2301,4.75,71916.0,-2.65,-3.71,-3.79,0,*69
1513011882.01,2302,4.75,71886.8,-2.65,-3.79,-3.79,0,*62
1513011883.21,2303,4.81,71888.0,-2.65,-3.83,-3.91,0,*60
1513011884.44,2304,4.75,71862.8,-2.67,-3.95,-3.95,0,*66
1513011885.65,2305,4.81,71904.0,-2.67,-3.87,-3.95,0,*64
1513011886.87,2306,4.75,71940.5,-2.67,-4.09,-3.95,0,*66
1513011888.09,2307,4.81,71976.5,-2.67,-3.87,-3.75,0,*68
1513011889.31,2308,4.81,71972.5,-2.69,-3.83,-3.71,0,*69
1513011890.55,2309,4.75,71988.3,-2.67,-3.83,-3.63,0,*65
1513011891.77,2310,4.75,71954.5,-2.69,-3.83,-3.71,0,*60
1513011893.04,2311,4.75,71968.8,-2.67,-3.63,-3.63,0,*62
1513011894.3,2312,4.75,71974.5,-2.67,-3.63,-3.63,0,*61
1513011895.57,2313,4.75,71970.3,-2.67,-3.51,-3.59,0,*68
1513011896.83,2314,4.75,71956.0,-2.67,-3.51,-3.51,0,*67
1513011898.1,2315,4.81,71932.3,-2.67,-3.51,-3.51,0,*66
1513011899.33,2316,4.75,71924.0,-2.65,-3.47,-3.43,0,*63
1513011900.6,2317,4.81,71918.0,-2.67,-3.51,-3.47,0,*63
1513011901.86,2318,4.81,71904.0,-2.67,-3.43,-3.43,0,*6B
1513011903.12,2319,4.81,71896.8,-2.67,-3.43,-3.43,0,*6A
1513011904.38,2320,4.75,71888.8,-2.67,-3.43,-3.43,0,*60
1513011905.62,2321,4.75,71876.5,-2.67,-3.43,-3.35,0,*60
1513011906.82,2322,4.75,71880.0,-2.65,-3.31,-3.39,0,*68
1513011908.03,2323,4.75,71884.5,-2.67,-3.31,-3.31,0,*63
1513011909.25,2324,4.75,71880.3,-2.67,-3.35,-3.31,0,*60
1513011910.44,2325,4.81,71882.3,-2.65,-3.31,-3.27,0,*60
1513011911.64,2326,4.75,71862.5,-2.65,-3.31,-3.31,0,*64
1513011912.9,2327,4.81,71886.0,-2.63,-3.43,-3.43,0,*63
1513011914.14,2328,4.81,71902.8,-2.63,-3.43,-3.39,0,*61
1513011915.33,2329,4.81,71900.0,-2.65,-3.39,-3.39,0,*6B
1513011916.59,2330,4.75,71882.8,-2.67,-3.43,-3.43,0,*61
1513011917.79,2331,4.81,71898.5,-2.65,-3.31,-3.27,0,*65
1513011918.98,2332,4.75,71894.5,-2.65,-3.31,-3.31,0,*61
1513011920.17,2333,4.75,71924.8,-2.65,-3.31,-3.35,0,*64
1513011921.39,2334,4.81,71918.8,-2.61,-3.43,-3.39,0,*6E
1513011922.65,2335,4.81,71862.0,-2.63,-3.59,-3.67,0,*6D
1513011923.89,2336,4.81,71872.3,-2.63,-3.71,-3.79,0,*6B
1513011925.12,2337,4.75,71880.8,-2.63,-3.79,-3.79,0,*62
1513011926.38,2338,4.81,71882.5,-2.63,-3.71,-3.71,0,*6D
1513011927.6,2339,4.81,71878.5,-2.67,-3.83,-3.83,0,*68
1513011928.83,2340,4.75,71908.5,-2.67,-3.75,-3.75,0,*66
1513011930.05,2341,4.81,71922.0,-2.67,-3.75,-3.75,0,*67
1513011931.28,2342,4.81,71918.5,-2.67,-3.75,-3.75,0,*64
1513011932.48,2343,4.81,71918.3,-2.65,-3.83,-3.75,0,*6E
1513011933.71,2344,4.81,71898.8,-2.67,-3.83,-3.75,0,*6B
1513011934.92,2345,4.81,71866.5,-2.67,-3.87,-3.83,0,*67
1513011936.15,2346,4.75,71834.0,-2.67,-3.83,-3.83,0,*60
1513011937.37,2347,4.81,71848.3,-2.67,-3.75,-3.75,0,*61
1513011938.59,2348,4.81,71778.3,-2.67,-3.87,-3.95,0,*6D
1513011939.81,2349,4.75,71728.0,-2.67,-3.95,-3.95,0,*6F
1513011941.03,2350,4.81,71780.3,-2.67,-3.87,-3.95,0,*64
1513011942.25,2351,4.81,71864.3,-2.67,-3.87,-3.83,0,*62
1513011943.48,2352,4.81,71834.5,-2.67,-3.75,-3.75,0,*65
1513011944.7,2353,4.81,71858.3,-2.67,-3.95,-3.95,0,*64
1513011945.91,2354,4.81,71820.0,-2.67,-3.87,-3.87,0,*63
1513011947.11,2355,4.81,71826.5,-2.69,-3.87,-3.87,0,*6C
1513011948.31,2356,4.81,71926.0,-2.69,-3.95,-3.87,0,*6C
1513011949.51,2357,4.81,71902.8,-2.69,-3.83,-3.83,0,*6E
1513011950.73,2358,4.81,71918.3,-2.67,-3.83,-3.83,0,*6F
1513011951.98,2359,4.81,71926.0,-2.67,-3.71,-3.75,0,*6A
1513011953.22,2360,4.75,71926.0,-2.69,-3.71,-3.63,0,*69
1513011954.46,2361,4.81,71922.3,-2.69,-3.71,-3.63,0,*68
1513011955.69,2362,4.75,71922.5,-2.69,-3.71,-3.63,0,*6B
1513011956.93,2363,4.81,71934.5,-2.69,-3.71,-3.71,0,*69
1513011958.18,2364,4.81,71948.3,-2.69,-3.63,-3.63,0,*6E
1513011959.41,2365,4.81,71944.3,-2.73,-3.67,-3.67,0,*64
1513011960.65,2366,4.81,71956.3,-2.69,-3.51,-3.51,0,*6C
1513011961.9,2367,4.81,71954.5,-2.69,-3.59,-3.63,0,*64
1513011963.13,2368,4.81,71934.5,-2.69,-3.71,-3.71,0,*62
1513011964.33,2369,4.81,71928.8,-2.73,-3.75,-3.79,0,*64
1513011965.53,2370,4.81,71914.0,-2.73,-3.87,-3.91,0,*67
1513011966.75,2371,4.81,71888.5,-2.73,-3.87,-4.01,0,*68
1513011967.94,2372,4.81,71860.0,-2.73,-3.87,-3.95,0,*61
1513011969.13,2373,4.81,71870.0,-2.69,-3.87,-3.87,0,*68
1513011970.34,2374,4.81,71900.0,-2.73,-3.91,-3.91,0,*64
1513011971.53,2375,4.81,71918.5,-2.73,-3.87,-3.91,0,*62
1513011972.77,2376,4.75,71924.3,-2.69,-3.71,-3.63,0,*6E
1513011974.0,2377,4.81,71946.5,-2.73,-3.67,-3.63,0,*63
1513011975.24,2378,4.81,71964.5,-2.73,-3.51,-3.55,0,*6C
1513011976.47,2379,4.81,71984.3,-2.73,-3.55,-3.55,0,*69
1513011977.7,2380,4.75,71990.8,-2.73,-3.55,-3.55,0,*6F
1513011978.93,2381,4.81,72004.0,-2.73,-3.51,-3.55,0,*6A
1513011980.17,2382,4.81,71992.0,-2.73,-3.51,-3.55,0,*69
1513011981.41,2383,4.81,71982.3,-2.69,-3.63,-3.71,0,*64
1513011982.61,2384,4.81,71930.8,-2.69,-3.87,-3.83,0,*64
1513011983.8,2385,4.81,71938.5,-2.73,-4.05,-4.13,0,*6D
1513011985.0,2386,4.81,71932.0,-2.69,-3.87,-3.87,0,*62
1513011986.2,2387,4.81,71936.3,-2.73,-3.91,-3.91,0,*68
1513011987.42,2388,4.81,71908.3,-2.73,-4.01,-3.91,0,*69
1513011988.62,2389,4.81,71892.3,-2.73,-3.91,-3.91,0,*66
1513011989.85,2390,4.81,71874.5,-2.73,-4.01,-4.13,0,*6D
1513011991.07,2391,4.81,71874.5,-2.73,-4.01,-4.05,0,*6B
1513011992.3,2392,4.81,71856.8,-2.75,-3.79,-3.75,0,*66
1513011993.49,2393,4.81,71882.0,-2.73,-3.87,-3.87,0,*6D
1513011994.71,2394,4.81,71892.8,-2.73,-4.01,-4.05,0,*6E
1513011995.94,2395,4.81,71892.3,-2.73,-4.01,-4.05,0,*6F
1513011997.13,2396,4.81,71904.8,-2.73,-4.13,-4.13,0,*68
1513011998.32,2397,4.81,71916.0,-2.73,-4.13,-4.05,0,*6E
1513011999.54,2398,4.81,71918.3,-2.75,-4.05,-4.05,0,*60
1513012000.79,2399,4.81,71920.8,-2.75,-3.91,-4.01,0,*6F
1513012002.02,2400,4.81,71920.0,-2.75,-3.79,-3.87,0,*67
1513012003.28,2401,4.81,71916.5,-2.77,-3.71,-3.63,0,*66
1513012004.54,2402,4.81,71912.3,-2.75,-3.63,-3.63,0,*64
1513012005.8,2403,4.81,71912.5,-2.75,-3.55,-3.63,0,*60
1513012007.07,2404,4.81,71892.8,-2.75,-3.55,-3.55,0,*62
1513012008.28,2405,4.81,71844.8,-2.75,-3.87,-3.87,0,*63
1513012009.51,2406,4.81,71908.0,-2.75,-3.91,-3.87,0,*67
1513012010.79,2407,4.81,71908.8,-2.75,-4.01,-4.01,0,*61
1513012012.07,2408,4.81,71862.0,-2.75,-4.01,-4.01,0,*6E
1513012013.34,2409,4.81,71836.0,-2.75,-4.01,-4.01,0,*6F
1513012014.59,2410,4.81,71836.8,-2.75,-4.01,-4.05,0,*63
1513012015.8,2411,4.81,71858.8,-2.77,-4.17,-4.17,0,*64
1513012017.02,2412,4.81,71872.0,-2.77,-4.09,-4.09,0,*67
1513012018.25,2413,4.81,71888.3,-2.77,-4.21,-4.21,0,*66
1513012019.47,2414,4.81,71912.0,-2.77,-4.09,-4.21,0,*6B
1513012020.69,2415,4.81,71932.0,-2.77,-3.95,-4.05,0,*6E
1513012021.91,2416,4.81,71932.3,-2.77,-3.91,-3.95,0,*67
1513012023.11,2417,4.81,71884.0,-2.79,-4.05,-3.91,0,*66
1513012024.3,2418,4.81,71914.3,-2.79,-3.95,-4.05,0,*6D
1513012025.5,2419,4.81,71924.5,-2.79,-4.05,-4.05,0,*62
1513012026.72,2420,4.81,71932.5,-2.79,-3.95,-4.01,0,*62
1513012027.92,2421,4.81,71940.5,-2.79,-3.95,-3.95,0,*69
1513012029.13,2422,4.81,71948.5,-2.81,-3.87,-3.95,0,*6E
1513012030.33,2423,4.81,71942.5,-2.79,-3.83,-3.91,0,*68
1513012031.53,2424,4.81,71934.5,-2.79,-3.91,-3.95,0,*68
1513012032.73,2425,4.81,71936.3,-2.79,-3.83,-3.91,0,*6E
1513012033.93,2426,4.81,71946.8,-2.79,-3.91,-3.95,0,*6A
1513012035.14,2427,4.81,71958.5,-2.81,-4.05,-4.05,0,*68
1513012036.36,2428,4.81,71962.8,-2.77,-4.05,-4.05,0,*6E
1513012037.56,2429,4.81,71946.0,-2.79,-3.95,-3.91,0,*65
1513012038.78,2430,4.81,71932.3,-2.81,-3.95,-4.09,0,*6C
1513012040.02,2431,4.81,71954.8,-2.81,-4.01,-3.95,0,*65
1513012041.21,2432,4.81,71960.3,-2.79,-4.05,-3.83,0,*62
1513012042.45,2433,4.81,71952.3,-2.81,-3.75,-3.59,0,*63
1513012043.66,2434,4.81,71942.3,-2.81,-3.31,-3.19,0,*60
1513012044.86,2435,4.81,71926.0,-2.79,-3.03,-2.95,0,*62
1513012046.06,2436,4.81,71914.5,-2.79,-3.31,-3.27,0,*68
1513012047.3,2437,4.81,71902.3,-2.77,-3.39,-3.43,0,*6D
1513012048.56,2438,4.81,71878.8,-2.77,-3.43,-3.43,0,*6F
1513012049.82,2439,4.81,71870.5,-2.77,-3.55,-3.51,0,*6A
1513012051.08,2440,4.81,71854.8,-2.75,-3.51,-3.51,0,*62
1513012052.35,2441,4.81,71844.0,-2.75,-3.51,-3.55,0,*67
1513012053.62,2442,4.81,71848.0,-2.75,-3.51,-3.51,0,*60
1513012054.88,2443,4.81,71848.3,-2.75,-3.47,-3.51,0,*66
1513012056.15,2444,4.81,71860.5,-2.75,-3.51,-3.51,0,*66
1513012057.41,2445,4.81,71848.0,-2.77,-3.67,-3.71,0,*62
1513012058.67,2446,4.81,71820.5,-2.75,-3.67,-3.67,0,*64
1513012059.91,2447,4.81,71838.5,-2.77,-3.71,-3.79,0,*6F
1513012061.17,2448,4.81,71836.5,-2.77,-3.67,-3.71,0,*6F
1513012062.43,2449,4.81,71834.3,-2.77,-3.67,-3.59,0,*64
1513012063.69,2450,4.81,71830.8,-2.75,-3.55,-3.55,0,*63
1513012064.96,2451,4.81,71850.5,-2.75,-3.55,-3.63,0,*67
1513012066.22,2452,4.81,71866.8,-2.75,-3.51,-3.51,0,*61
1513012067.49,2453,4.81,71870.8,-2.75,-3.51,-3.51,0,*60
1513012068.75,2454,4.81,71874.0,-2.77,-3.67,-3.71,0,*62
1513012069.99,2455,4.81,71896.0,-2.77,-3.71,-3.79,0,*6C
1513012071.25,2456,4.81,71894.3,-2.77,-3.71,-3.71,0,*67
1513012072.47,2457,4.81,71832.8,-2.77,-3.91,-3.91,0,*66
1513012073.69,2458,4.81,71828.3,-2.75,-3.87,-3.87,0,*6B
1513012074.91,2459,4.81,71834.5,-2.77,-3.83,-3.83,0,*68
1513012076.17,2460,4.81,71836.5,-2.77,-3.71,-3.71,0,*62
1513012077.43,2461,4.81,71880.3,-2.77,-3.71,-3.67,0,*64
1513012078.69,2462,4.81,71874.0,-2.75,-3.63,-3.67,0,*66
1513012079.92,2463,4.81,71876.0,-2.77,-3.83,-3.91,0,*62
1513012081.12,2464,4.81,71886.3,-2.79,-3.79,-3.83,0,*6D
1513012082.35,2465,4.81,71864.3,-2.77,-3.71,-3.83,0,*6A
1513012083.6,2466,4.81,71862.0,-2.75,-3.67,-3.75,0,*65
1513012084.84,2467,4.81,71910.8,-2.77,-3.79,-3.71,0,*6D
1513012086.07,2468,4.81,71910.0,-2.77,-3.79,-3.79,0,*6A
1513012087.29,2469,4.81,71922.5,-2.77,-3.83,-3.91,0,*68
1513012088.53,2470,4.81,71912.5,-2.77,-3.71,-3.79,0,*6B
1513012089.75,2471,4.81,71892.5,-2.77,-3.79,-3.83,0,*67
1513012091.0,2472,4.81,71912.0,-2.77,-3.79,-3.71,0,*69
1513012092.24,2473,4.81,71926.5,-2.77,-3.71,-3.79,0,*68
1513012093.5,2474,4.81,71930.0,-2.77,-3.59,-3.59,0,*67
1513012094.77,2475,4.81,71924.8,-2.77,-3.59,-3.59,0,*66
1513012096.03,2476,4.81,71942.0,-2.77,-3.55,-3.59,0,*69
1513012097.29,2477,4.81,71904.0,-2.77,-3.55,-3.55,0,*64
1513012098.55,2478,4.81,71930.0,-2.77,-3.55,-3.55,0,*6B
1513012099.81,2479,4.81,71924.8,-2.77,-3.59,-3.67,0,*67
1513012101.06,2480,4.81,71906.8,-2.77,-3.67,-3.71,0,*6B
1513012102.33,2481,4.81,71872.3,-2.77,-3.59,-3.59,0,*6D
1513012103.6,2482,4.81,71880.0,-2.77,-3.67,-3.59,0,*63
1513012104.86,2483,4.81,71884.8,-2.77,-3.59,-3.55,0,*63
1513012106.12,2484,4.81,71894.5,-2.77,-3.51,-3.55,0,*6C
1513012107.35,2485,4.81,71900.3,-2.79,-3.55,-3.55,0,*67
1513012108.58,2486,4.81,71896.0,-2.75,-3.75,-3.75,0,*68
1513012109.8,2487,4.81,71898.0,-2.77,-3.83,-3.83,0,*6B
1513012111.03,2488,4.81,71902.5,-2.77,-3.91,-3.91,0,*64
1513012112.25,2489,4.81,71922.0,-2.77,-3.83,-3.83,0,*65
1513012113.51,2490,4.81,71942.8,-2.77,-3.71,-3.67,0,*6A
1513012114.76,2491,4.81,71928.0,-2.77,-3.67,-3.67,0,*6C
1513012116.01,2492,4.81,71914.8,-2.79,-3.59,-3.59,0,*61
1513012117.27,2493,4.81,71900.3,-2.77,-3.67,-3.67,0,*6E
1513012118.52,2494,4.81,71910.5,-2.77,-3.55,-3.55,0,*69
1513012119.79,2495,4.81,71920.3,-2.77,-3.59,-3.59,0,*68
1513012121.05,2496,4.81,71926.8,-2.77,-3.67,-3.59,0,*66
1513012122.31,2497,4.81,71942.0,-2.75,-3.55,-3.55,0,*68
1513012123.58,2498,4.81,71944.5,-2.77,-3.59,-3.59,0,*65
1513012124.82,2499,4.81,71940.0,-2.79,-3.59,-3.55,0,*66
1513012126.09,2500,4.81,71920.3,-2.77,-3.59,-3.59,0,*65
1513012127.35,2501,4.81,71922.0,-2.77,-3.59,-3.67,0,*69
1513012128.61,2502,4.81,71922.0,-2.77,-3.59,-3.67,0,*6A